Flag for Canada Weather past 2 weeks in Camrose, Alberta, Canada

Now
45 °F

Passing clouds.


Feels Like: 38 °F
Forecast: 22 / 46 °F
Wind: 13 mph from South

Location: Edmonton International

Current Time: Apr 26, 2015 at 3:03:07 PM

Latest Report: Apr 26, 2015 at 2:00 PM


Visibility: 15 mi

Pressure: 30.24 "Hg

Humidity: 31%

Dew point: 16 °F

Location of CamroseLocation

Historic Weather in Camrose — Graph

°F

Camrose temperature yesterday

Maximum temperature yesterday: 39 °F (at 4:00 PM)
Minimum temperature yesterday: 25 °F (at 11:00 PM)
Average temperature yesterday: 33 °F

Past Weeks' High & Low Weather Summary

 TemperatureHumidityPressure
High72 °F (Apr 22, 3:00 PM)100% (Apr 25, 3:54 AM)30.37 "Hg (Apr 25, 3:54 AM)
Low14 °F (Apr 26, 6:00 AM)15% (Apr 15, 6:00 PM)29.36 "Hg (Apr 11, 2:00 PM)
Average42 °F51%29.95 "Hg
* Reported Apr 11 2:00 PM — Apr 26 2:00 PM, Camrose, Weather by CustomWeather, © 2015

Note: Actual official high and low records may vary slightly from our data, if they occured in-between our weather recording intervals... More about our weather records

Advertising

Camrose weather history for previous 24 hours

 ConditionsComfort  
Time TempWeatherWind HumidityBarometerVisibility
2:00 PM
Sun, Apr 26
45 °FPassing clouds.13 mph31%30.24 "Hg15 mi
1:00 PM43 °FPassing clouds.10 mph36%30.24 "Hg15 mi
12:00 PM43 °FPassing clouds.8 mph36%30.24 "Hg12 mi
11:00 AM41 °FPassing clouds.9 mph49%30.25 "Hg15 mi
10:00 AM39 °FPassing clouds.5 mph61%30.25 "Hg15 mi
9:00 AM34 °FPassing clouds.2 mph75%30.24 "Hg15 mi
8:00 AM27 °FPassing clouds.3 mph86%30.24 "Hg12 mi
7:00 AM18 °FPassing clouds.3 mph86%30.23 "Hg15 mi
6:00 AM14 °FPassing clouds.3 mph92%30.23 "Hg15 mi
5:00 AM21 °FPassing clouds.3 mph93%30.21 "Hg15 mi
4:00 AM21 °FPassing clouds.5 mph93%30.19 "Hg15 mi
3:00 AM23 °FPassing clouds.5 mph86%30.20 "Hg15 mi
2:00 AM21 °FPassing clouds.6 mph93%30.20 "Hg15 mi
1:00 AM19 °FClear.6 mph93%30.20 "Hg15 mi
12:00 AM23 °FPassing clouds.7 mph93%30.19 "Hg15 mi
11:00 PM
Sat, Apr 25
25 °FPassing clouds.7 mph86%30.19 "Hg15 mi
10:00 PM27 °FPassing clouds.7 mph86%30.19 "Hg15 mi
9:00 PM28 °FScattered clouds.8 mph80%30.17 "Hg15 mi
8:00 PM36 °FPartly sunny.10 mph65%30.14 "Hg15 mi
7:00 PM37 °FPartly sunny.8 mph65%30.13 "Hg15 mi
6:00 PM37 °FBroken clouds.9 mph70%30.12 "Hg15 mi
5:00 PM39 °FBroken clouds.10 mph65%30.11 "Hg15 mi
4:00 PM39 °FBroken clouds.10 mph56%30.10 "Hg15 mi
3:00 PM36 °FLight snow. More clouds than sun.7 mph75%30.10 "Hg10 mi
Weather by CustomWeather, © 2015

See weather overviewHow to use our weather pages